sat.trackr.live / text

‹ back to catalog

STARLINK-3933

NORAD 52538 · 2022-051F

PAYLOAD ACTIVE UNKNOWN

§ Identity

Operator
Country
US
Launch date
2022-05-13
Launch site
AFWTR
Launch vehicle
Mass (kg)
RCS (m²)

Purposes: comms

External: N2YO · Heavens-Above · Gunter

§ Orbital elements

Epoch: 2026-05-25T00:05:39.235776Z

Period
95.44 min
Inclination
53.2142°
Eccentricity
0.0001004
Mean motion
15.08849344 rev/d
Perigee alt
539.0 km
Apogee alt
540.4 km
Semi-major
6,917.9 km
B*
-1.4633e-4
RAAN
146.5322°
Arg perigee
94.3705°
Mean anomaly
265.7402°
Rev number
22,296

§ Raw data

STARLINK-39331 52538U 22051F   26145.00392634 -.00002616  00000+0 -14633-3 0  99942 52538  53.2142 146.5322 0001004  94.3705 265.7402 15.08849344222961

JSON: /api/v1/satellites/52538 · /tle

For live sub-satellite position, see the globe view (requires WebGL).

§ Visibility from observer

Set your observer location to see the next 7 days of passes ≥ 10°. The values pass through the URL so the page stays shareable.

No JS? Fill the form by hand. The geolocation button needs JavaScript.